Weather History for Denali Park, AK

Change the Weather History Date:

Monday, September 1, 2014

  Actual Average Record
Temperature  
Mean Temperature 36 °F -  
Max Temperature 44 °F 58 °F 76 °F (1974)
Min Temperature 28 °F 33 °F 22 °F (1987)
Degree Days  
Heating Degree Days 29    
Moisture  
Dew Point 34 °F    
Average Humidity 87    
Maximum Humidity 100    
Minimum Humidity 57    
Precipitation  
Precipitation 0.55 in - - ()
Sea Level Pressure  
Sea Level Pressure 29.82 in    
Wind  
Wind Speed 1 mph (South)    
Max Wind Speed 6 mph    
Max Gust Speed -    
Visibility 10 miles    
Events      
Averages and records for this station are not official NWS values.
T = Trace of Precipitation, MM = Missing Value Source: NWS Daily Summary

Daily Weather History Graph

Daily Weather History Graph

Search for Another Location

Airport:

Trip Planner

Search our weather history database for the weather conditions in past years. The results will help you decide how hot, cold, wet, or windy it might be!

Date:

Astronomy

Sep. 01, 2014 Rise Set
Actual Time 6:40 AM AKDT 9:09 PM AKDT
Civil Twilight 5:47 AM AKDT 10:00 PM AKDT
Nautical Twilight 4:35 AM AKDT 11:11 PM AKDT
Astronomical Twilight 2:08 AM AKDT 1:16 AM AKDT
Moon 4:00 PM AKDT (9/1) 10:52 PM AKDT (9/1)
Length of Visible Light 16h 13m
Length of Day
14h 29m
Waxing Crescent, 43% of the Moon is Illuminated
Sep 1
Waxing Crescent
Sep 2
First Quarter
Sep 8
Full
Sep 15
Last Quarter
Sep 23
New

Hourly Weather History & Observations

Time (AKDT) Temp. Windchill Dew Point Humidity Pressure Visibility Wind Dir Wind Speed Gust Speed Precip Events Conditions
12:16 AM 37.4 °F - 30.2 °F 75% 29.85 in 10.0 mi Calm Calm - N/A   Overcast
12:36 AM 37.4 °F - 30.2 °F 75% 29.85 in 10.0 mi Calm Calm - N/A   Overcast
12:56 AM 37.4 °F - 32.0 °F 81% 29.86 in 10.0 mi Calm Calm - N/A   Overcast
1:16 AM 37.4 °F - 30.2 °F 75% 29.86 in 10.0 mi Calm Calm - N/A   Overcast
1:36 AM 37.4 °F - 30.2 °F 75% 29.86 in 10.0 mi Calm Calm - N/A   Overcast
2:16 AM 37.4 °F - 32.0 °F 81% 29.86 in 10.0 mi Calm Calm - N/A   Overcast
2:36 AM 35.6 °F - 32.0 °F 87% 29.87 in 10.0 mi Calm Calm - N/A   Overcast
2:56 AM 35.6 °F - 32.0 °F 87% 29.87 in 10.0 mi Calm Calm - N/A   Overcast
3:16 AM 35.6 °F - 32.0 °F 87% 29.87 in 10.0 mi Calm Calm - N/A   Overcast
3:36 AM 35.6 °F - 32.0 °F 87% 29.87 in 10.0 mi Calm Calm - N/A   Overcast
3:56 AM 35.6 °F - 32.0 °F 87% 29.87 in 10.0 mi Calm Calm - N/A   Overcast
4:16 AM 35.6 °F - 30.2 °F 81% 29.87 in 10.0 mi Calm Calm - N/A   Mostly Cloudy
4:36 AM 33.8 °F - 30.2 °F 87% 29.87 in 10.0 mi Calm Calm - N/A   Mostly Cloudy
4:56 AM 33.8 °F - 30.2 °F 87% 29.87 in 10.0 mi Calm Calm - N/A   Mostly Cloudy
5:16 AM 32.0 °F - 30.2 °F 93% 29.86 in 10.0 mi Calm Calm - N/A   Scattered Clouds
5:36 AM 32.0 °F - 30.2 °F 93% 29.86 in 10.0 mi Calm Calm - N/A   Clear
5:56 AM 30.2 °F - 30.2 °F 100% 29.86 in 10.0 mi Calm Calm - N/A   Clear
6:16 AM 30.2 °F - 28.4 °F 93% 29.86 in 10.0 mi Calm Calm - N/A   Clear
6:36 AM 30.2 °F - 28.4 °F 93% 29.86 in 10.0 mi Calm Calm - N/A   Clear
6:56 AM 28.4 °F - 28.4 °F 100% 29.86 in 10.0 mi Calm Calm - N/A   Clear
7:16 AM 28.4 °F - 28.4 °F 100% 29.87 in 10.0 mi Calm Calm - N/A   Clear
7:36 AM 28.4 °F - 26.6 °F 93% 29.86 in 10.0 mi Calm Calm - N/A   Clear
7:56 AM 30.2 °F - 30.2 °F 100% 29.86 in 10.0 mi Calm Calm - N/A   Clear
8:16 AM 33.8 °F - 30.2 °F 87% 29.86 in 10.0 mi Calm Calm - N/A   Clear
8:36 AM 33.8 °F - 30.2 °F 87% 29.86 in 10.0 mi Calm Calm - N/A   Clear
8:56 AM 33.8 °F - 32.0 °F 93% 29.86 in 10.0 mi Calm Calm - N/A   Clear
9:16 AM 35.6 °F - 32.0 °F 87% 29.85 in 10.0 mi Calm Calm - N/A   Clear
9:36 AM 35.6 °F - 33.8 °F 93% 29.84 in 10.0 mi Calm Calm - N/A   Clear
9:56 AM 37.4 °F - 32.0 °F 81% 29.84 in 10.0 mi Calm Calm - N/A   Clear
10:16 AM 37.4 °F - 30.2 °F 75% 29.83 in 10.0 mi Calm Calm - N/A   Clear
10:36 AM 37.4 °F - 32.0 °F 81% 29.82 in 10.0 mi Calm Calm - N/A   Clear
10:56 AM 39.2 °F - 32.0 °F 75% 29.81 in 10.0 mi Calm Calm - N/A   Clear
11:16 AM 39.2 °F - 30.2 °F 70% 29.81 in 10.0 mi Calm Calm - N/A   Clear
11:36 AM 41.0 °F - 30.2 °F 65% 29.81 in 10.0 mi Calm Calm - N/A   Mostly Cloudy
11:56 AM 42.8 °F - 30.2 °F 61% 29.81 in 10.0 mi Calm Calm - N/A   Overcast
12:16 PM 42.8 °F - 30.2 °F 61% 29.81 in 10.0 mi Calm Calm - N/A   Overcast
12:36 PM 42.8 °F - 30.2 °F 61% 29.80 in 10.0 mi Calm Calm - N/A   Overcast
12:56 PM 44.6 °F - 30.2 °F 57% 29.80 in 10.0 mi Calm Calm - N/A   Overcast
1:16 PM 44.6 °F - 32.0 °F 61% 29.80 in 10.0 mi Calm Calm - N/A   Overcast
1:36 PM 44.6 °F 42.2 °F 33.8 °F 66% 29.80 in 10.0 mi SSW 4.6 mph - N/A   Overcast
1:56 PM 44.6 °F 42.2 °F 35.6 °F 71% 29.81 in 10.0 mi South 4.6 mph - N/A   Overcast
2:16 PM 41.0 °F - 37.4 °F 87% 29.81 in 9.0 mi Calm Calm - N/A   Overcast
2:36 PM 41.0 °F - 37.4 °F 87% 29.81 in 10.0 mi Calm Calm - 0.01 in   Overcast
2:56 PM 41.0 °F 39.0 °F 37.4 °F 87% 29.81 in 10.0 mi South 3.5 mph - 0.01 in   Overcast
3:16 PM 41.0 °F 39.0 °F 37.4 °F 87% 29.82 in 9.0 mi South 3.5 mph - 0.02 in   Overcast
3:36 PM 41.0 °F 38.0 °F 39.2 °F 93% 29.82 in 9.0 mi SSE 4.6 mph - 0.04 in   Overcast
3:56 PM 39.2 °F - 39.2 °F 100% 29.82 in 9.0 mi Calm Calm - 0.09 in   Overcast
4:16 PM 39.2 °F - 39.2 °F 100% 29.81 in 10.0 mi Calm Calm - 0.03 in   Overcast
4:36 PM 39.2 °F 37.0 °F 39.2 °F 100% 29.80 in 10.0 mi SSE 3.5 mph - 0.03 in   Overcast
4:56 PM 39.2 °F - 39.2 °F 100% 29.80 in 10.0 mi Calm Calm - 0.05 in   Overcast
5:16 PM 41.0 °F 39.0 °F 39.2 °F 93% 29.79 in 10.0 mi SSW 3.5 mph - N/A   Overcast
5:36 PM 41.0 °F 38.0 °F 39.2 °F 93% 29.79 in 10.0 mi SSE 4.6 mph - 0.02 in   Overcast
5:56 PM 41.0 °F 39.0 °F 39.2 °F 93% 29.79 in 10.0 mi South 3.5 mph - 0.03 in   Overcast
6:16 PM 41.0 °F 37.1 °F 39.2 °F 93% 29.79 in 10.0 mi SSE 5.8 mph - 0.01 in   Overcast
6:36 PM 41.0 °F 39.0 °F 39.2 °F 93% 29.79 in 10.0 mi SSE 3.5 mph - 0.02 in   Overcast
6:56 PM 41.0 °F - 39.2 °F 93% 29.78 in 10.0 mi Calm Calm - 0.03 in   Overcast
7:16 PM 41.0 °F - 39.2 °F 93% 29.79 in 10.0 mi Calm Calm - 0.01 in   Overcast
7:36 PM 41.0 °F 39.0 °F 39.2 °F 93% 29.78 in 10.0 mi SSE 3.5 mph - 0.04 in   Overcast
7:56 PM 41.0 °F 39.0 °F 39.2 °F 93% 29.79 in 10.0 mi South 3.5 mph - 0.06 in   Overcast
8:16 PM 41.0 °F - 39.2 °F 93% 29.78 in 10.0 mi Calm Calm - 0.04 in   Overcast
8:36 PM 41.0 °F 39.0 °F 39.2 °F 93% 29.77 in 10.0 mi SSE 3.5 mph - 0.05 in   Overcast
8:56 PM 41.0 °F 39.0 °F 39.2 °F 93% 29.77 in 10.0 mi South 3.5 mph - 0.06 in   Overcast
9:16 PM 41.0 °F 39.0 °F 39.2 °F 93% 29.78 in 10.0 mi South 3.5 mph - 0.02 in   Overcast
9:36 PM 41.0 °F 39.0 °F 39.2 °F 93% 29.77 in 10.0 mi SSW 3.5 mph - 0.05 in   Overcast
9:56 PM 41.0 °F - 39.2 °F 93% 29.77 in 10.0 mi Calm Calm - 0.08 in   Overcast
10:16 PM 41.0 °F - 39.2 °F 93% 29.78 in 10.0 mi Calm Calm - 0.02 in   Overcast
10:36 PM 41.0 °F - 39.2 °F 93% 29.77 in 10.0 mi Calm Calm - 0.03 in   Overcast
10:56 PM 41.0 °F 38.0 °F 39.2 °F 93% 29.77 in 10.0 mi South 4.6 mph - 0.05 in   Overcast
11:16 PM 41.0 °F 38.0 °F 39.2 °F 93% 29.77 in 10.0 mi SW 4.6 mph - 0.02 in   Overcast
11:36 PM 41.0 °F - 41.0 °F 100% 29.77 in 10.0 mi Calm Calm - 0.05 in   Overcast
11:56 PM 41.0 °F - 41.0 °F 100% 29.77 in 9.0 mi Calm Calm - 0.09 in   Overcast